Tracking 35331 objects as of 15-Sep-2026
HD Live streaming from Space Station
objects crossing your sky now

CZ-4B R/B


CZ-4B R/B is no longer on orbit


NORAD ID: 46397
Int'l Code: 2020-064B
Launch date: September 7, 2020
Source: People's Republic of China (PRC)
Launch site: Taiyaun Space Center, China (TSC)
Decay date: 2021-01-01

Note: This is a ROCKET BODY
Your satellite tracking list
Your tracking list is empty




NASA's NSSDC Master Catalog

Two Line Element Set (TLE):
1 46397U 20064B   21001.36830893  .37031575  23551-5  11158-3 0  9996
2 46397  97.2147 126.8724 0022865 120.0408 241.2153 16.59334185 18416
Source of the keplerian elements: AFSPC